Simultaneous Nadir Overpasses (SNOs) Predictions

Prediction of SNOs between GOES-16 and NOAA-19 Satellite Orbit:

Table of predicted SNOs for the next 14.0 days since TLE Epoch: 5/14/2022
Index Date Time (GOES-16) GOES-16 Lat,Lon NOAA-19 Lat,Lon Distance(km) Time Diff (sec)
1 05/14/2022 12:37:18 0.06, -75.22 -0.20, -73.99 140.16 80
2 05/15/2022 12:25:29 0.06, -75.22 -0.87, -71.10 469.83 80
3 05/17/2022 01:00:36 -0.05, -75.21 -0.88, -78.88 418.76 80
4 05/18/2022 00:48:46 -0.05, -75.21 -0.20, -76.00 89.11 80
5 05/19/2022 00:34:16 -0.04, -75.22 0.42, -73.11 240.71 80
6 05/21/2022 12:57:35 0.03, -75.26 0.70, -78.00 313.65 80
7 05/22/2022 12:43:05 0.03, -75.27 0.01, -75.12 16.90 80
8 05/23/2022 12:31:16 0.03, -75.28 -0.69, -72.24 347.69 80
9 05/26/2022 00:54:33 -0.03, -75.30 -0.42, -77.12 207.46 80
10 05/27/2022 00:40:02 -0.03, -75.32 0.21, -74.23 124.09 80
11 05/28/2022 00:28:13 -0.02, -75.34 0.90, -71.35 455.68 80
